DateTimeUTC,F1_A11,F1_S11,BsB_S11,BsG_S11,BsR_S11,BbsB_S11,BbsG_S11,BbsR_S11,BaB_A11,BaG_A11,BaR_A11,Tu_S11,T_S11,Uu_S11,U_S11,P_S11,T1_A11
2021-08-26T19:00:00Z,00000200,20000000,,,,,,,-000.19,-000.01,0000.19,19.7,26.5,08.3,05.5,0672.6,31.0
2021-08-26T19:01:00Z,00000200,20000000,,,,,,,0000.18,0000.06,0000.12,19.7,26.5,08.3,05.5,0672.6,31.0
2021-08-26T19:02:00Z,00000200,20000000,,,,,,,-000.10,-000.06,-000.15,19.7,26.5,08.4,05.5,0672.6,31.0
2021-08-26T19:03:00Z,00000200,60000000,,,,,,,0000.51,0000.70,0000.52,19.7,26.5,08.6,05.7,0672.6,31.0
2021-08-26T19:04:00Z,00000200,40000000,0002.75,0002.02,0001.25,-000.01,0000.15,0000.07,0000.55,0000.50,0000.27,19.8,26.4,08.6,05.8,0673.5,31.0
2021-08-26T19:05:00Z,00000200,00000000,0001.32,0001.98,0001.18,0000.62,0000.15,0000.16,0000.12,-000.07,0000.43,19.9,26.3,08.8,06.0,0673.6,31.0
2021-08-26T19:06:00Z,00000200,00000000,0001.96,0001.86,0000.94,0000.19,0000.18,0000.12,0000.05,0000.30,-000.10,19.8,26.3,08.6,05.9,0673.6,31.0
2021-08-26T19:07:00Z,00000200,00000000,0002.73,0002.00,0001.14,0000.14,0000.32,0000.40,0000.55,0000.33,0000.25,19.9,26.3,08.7,05.9,0673.6,30.9
2021-08-26T19:08:00Z,00000200,00000000,0001.93,0001.99,0000.82,0000.14,0000.14,0000.18,0000.69,0000.41,0000.57,19.9,26.3,08.7,05.9,0673.6,30.9
2021-08-26T19:09:00Z,00000200,00000000,0002.02,0002.04,0001.05,0000.31,0000.38,0000.51,0000.07,0000.61,0000.49,19.9,26.3,08.7,05.9,0673.6,31.0
2021-08-26T19:10:00Z,00000200,00000000,0002.34,0001.55,0001.08,0000.75,0000.34,0000.44,0000.30,0000.08,-000.07,19.8,26.3,08.7,05.9,0673.6,31.0
2021-08-26T19:11:00Z,00000200,00000000,0002.16,0001.64,0001.10,0000.03,0000.14,0000.10,0000.08,0000.18,0000.45,19.9,26.3,08.6,05.8,0673.6,31.0
2021-08-26T19:12:00Z,00000200,00000000,0002.19,0001.69,0001.23,0000.40,0000.43,0000.41,0000.82,0000.43,0000.36,19.9,26.3,08.7,05.9,0673.7,30.9
2021-08-26T19:13:00Z,00000200,00000000,0002.28,0001.93,0000.82,0000.14,0000.01,0000.22,0000.27,0000.34,0000.06,19.9,26.3,08.8,06.0,0673.7,31.0
2021-08-26T19:14:00Z,00000200,00000000,0002.13,0001.54,0000.64,0000.34,0000.20,-000.10,-000.00,0000.19,0000.08,19.9,26.3,08.7,05.9,0673.7,31.0
2021-08-26T19:15:00Z,00000200,00000000,0001.25,0001.70,0000.77,-000.07,-000.05,0000.27,-000.11,-000.15,0000.03,19.9,26.3,08.6,05.8,0673.7,31.0
2021-08-26T19:16:00Z,00000200,00000000,0001.61,0001.56,0000.97,0000.30,-000.27,0000.40,0000.56,0000.35,0000.61,19.8,26.2,08.7,05.9,0673.7,31.0
2021-08-26T19:17:00Z,00000200,00000000,0001.43,0001.61,0000.95,0000.35,0000.24,0000.16,0000.42,0000.59,0000.42,19.8,26.2,08.8,06.0,0673.7,31.0
2021-08-26T19:18:00Z,00000200,00000000,0002.18,0001.61,0001.07,0000.07,-000.01,0000.32,0000.14,-000.02,-000.03,19.8,26.2,08.7,05.9,0673.7,31.0
2021-08-26T19:19:00Z,00000200,00000000,0001.78,0001.39,0001.01,0000.57,0000.19,0000.46,0000.55,0000.52,-000.01,19.8,26.2,08.7,05.9,0673.7,31.0
2021-08-26T19:20:00Z,00000200,00000000,0001.42,0001.74,0000.93,-000.02,-000.10,0000.20,0000.10,0000.05,0000.33,19.9,26.2,08.7,05.9,0673.7,31.0
2021-08-26T19:21:00Z,00000200,00000000,0001.32,0001.36,0000.65,0000.26,0000.21,0000.07,0000.32,-000.13,0000.42,19.9,26.2,08.6,05.8,0673.7,31.0
2021-08-26T19:22:00Z,00000200,00000000,0001.04,0001.44,0000.45,0000.65,0000.35,0000.21,-000.08,0001.05,0000.27,19.9,26.2,08.5,05.8,0673.7,31.0
2021-08-26T19:23:00Z,00000200,00000000,0000.53,0001.24,0000.34,0001.05,0000.19,-000.02,0000.41,-000.33,-000.18,19.9,26.2,08.6,05.8,0673.8,31.0
2021-08-26T19:24:00Z,00000200,00000000,0001.02,0001.06,0000.55,-000.30,0000.12,-000.03,-000.02,0000.08,0000.19,19.9,26.2,08.5,05.8,0673.7,31.0
2021-08-26T19:25:00Z,00000200,00000000,0002.06,0001.32,0000.76,0000.11,0000.26,-000.15,0000.35,0000.70,0000.65,19.8,26.2,08.6,05.9,0673.7,31.0
2021-08-26T19:26:00Z,00000200,00000000,0001.33,0001.49,0000.42,0000.44,0000.17,0000.08,0000.38,0000.42,-000.03,19.8,26.2,08.6,05.9,0673.7,30.9
2021-08-26T19:27:00Z,00000200,00000000,0001.50,0001.53,0000.61,0000.57,0000.15,0000.04,0000.47,0000.05,-000.01,19.8,26.2,08.6,05.9,0673.7,30.9
2021-08-26T19:28:00Z,00000200,00000000,0001.98,0001.39,0000.61,-000.46,0000.10,-000.14,-000.11,0000.16,0000.46,19.9,26.2,08.7,06.0,0673.7,30.9
2021-08-26T19:29:00Z,00000200,00000000,0002.35,0001.19,0000.84,0000.39,0000.16,0000.23,0000.43,0000.27,0000.28,19.8,26.2,08.7,06.0,0673.7,31.0
2021-08-26T19:30:00Z,00000200,00000000,0001.90,0001.70,0000.76,0000.26,0000.24,0000.33,0000.47,0000.25,0000.33,19.8,26.2,08.8,06.0,0673.7,31.0
2021-08-26T19:31:00Z,00000200,00000000,0001.81,0001.29,0000.78,-000.12,0000.26,0000.41,0000.08,0000.11,0000.40,19.8,26.1,08.7,05.9,0673.8,31.0
2021-08-26T19:32:00Z,00000200,00000000,0001.74,0001.15,0000.90,0000.22,0000.24,-000.11,-000.02,0000.24,-000.24,19.8,26.2,08.7,05.9,0673.8,30.9
2021-08-26T19:33:00Z,00000200,00000000,0001.29,0001.36,0000.84,-000.07,-000.03,0000.13,0000.40,0000.14,0000.15,19.8,26.2,08.7,05.9,0673.8,31.0
2021-08-26T19:34:00Z,00000200,00000000,0001.52,0001.59,0000.84,0000.12,0000.19,0000.19,0000.27,0000.28,0000.75,19.8,26.2,08.8,06.0,0673.8,31.0
2021-08-26T19:35:00Z,00000200,00000000,0002.43,0001.52,0000.22,0000.64,0000.07,-000.05,0000.88,0000.71,0000.14,19.8,26.2,08.8,06.0,0673.8,31.0
2021-08-26T19:36:00Z,00000200,00000000,0001.69,0001.51,0000.56,-000.49,0000.23,0000.03,-000.11,-000.38,-000.14,19.8,26.2,08.9,06.0,0673.8,30.9
2021-08-26T19:37:00Z,00000200,00000000,0001.85,0001.92,0000.98,0000.67,0000.25,-000.06,0000.22,0000.64,0000.58,19.8,26.1,08.9,06.1,0673.8,31.0
2021-08-26T19:38:00Z,00000200,00000000,0002.19,0001.65,0000.70,0000.39,0000.42,-000.01,0000.94,0000.67,0000.31,19.8,26.1,08.9,06.0,0673.8,31.0
2021-08-26T19:39:00Z,00000200,00000000,0002.37,0001.85,0000.89,-000.38,0000.37,0000.24,0000.13,0000.24,0000.31,19.8,26.1,08.7,05.9,0673.8,31.0
2021-08-26T19:40:00Z,00000200,00000000,0002.37,0002.13,0000.96,0000.21,0000.07,-000.12,0000.43,0000.53,0000.33,19.8,26.1,09.0,06.1,0673.8,30.9
2021-08-26T19:41:00Z,00000200,00000000,0002.34,0001.78,0001.21,0000.47,0000.20,0000.03,0000.53,0000.63,0000.83,19.8,26.1,09.0,06.1,0673.8,30.9
2021-08-26T19:42:00Z,00000200,00000000,0002.21,0002.15,0000.96,0000.72,0000.27,-000.08,0000.34,0000.44,0000.12,19.8,26.1,09.1,06.2,0673.9,30.9
2021-08-26T19:43:00Z,00000200,00000000,0002.57,0001.87,0001.23,0000.49,0000.60,0000.41,-000.00,-000.09,-000.08,19.8,26.1,09.0,06.1,0673.9,30.9
2021-08-26T19:44:00Z,00000200,00000000,0001.89,0002.05,0000.96,-000.31,0000.14,-000.13,0000.36,-000.07,0000.47,19.8,26.1,08.8,06.0,0673.9,30.9
2021-08-26T19:45:00Z,00000200,00000000,0002.03,0002.13,0001.05,0000.52,0000.08,-000.13,0000.13,0000.26,-000.01,19.8,26.1,08.7,06.0,0673.9,30.9
2021-08-26T19:46:00Z,00000200,00000000,0001.77,0001.75,0001.00,0000.44,-000.01,-000.08,0000.36,0000.48,0000.48,19.8,26.1,08.7,06.0,0673.9,31.0
2021-08-26T19:47:00Z,00000200,00000000,0001.97,0001.89,0001.17,-000.03,0000.23,-000.04,0000.35,0000.40,0000.43,19.8,26.1,08.7,06.0,0673.9,30.9
2021-08-26T19:48:00Z,00000200,00000000,0002.79,0001.98,0001.01,0000.11,0000.32,-000.03,0000.19,0000.44,-000.24,19.8,26.1,08.7,05.9,0673.9,30.9
2021-08-26T19:49:00Z,00000200,00000000,0001.81,0001.86,0000.62,0000.48,0000.19,-000.12,0000.07,-000.36,0000.33,19.8,26.1,08.7,05.9,0673.9,31.0
2021-08-26T19:50:00Z,00000200,00000000,0002.20,0001.35,0000.93,0000.18,0000.28,0000.45,0000.32,0000.55,0000.48,19.8,26.1,08.7,05.9,0673.9,30.9
2021-08-26T19:51:00Z,00000200,00000000,0001.99,0001.70,0000.99,0000.57,0000.18,-000.18,0000.49,0000.21,0000.09,19.8,26.1,08.7,05.9,0673.9,31.0
2021-08-26T19:52:00Z,00000200,00000000,0002.52,0001.54,0000.99,0000.40,0000.24,-000.08,-000.11,0000.09,0000.12,19.8,26.1,08.6,05.9,0673.9,31.0
2021-08-26T19:53:00Z,00000200,00000000,0002.17,0001.77,0000.78,0000.47,0000.28,0000.43,0000.07,0000.04,-000.09,19.8,26.1,08.6,05.8,0673.9,30.9
2021-08-26T19:54:00Z,00000200,00000000,0003.07,0001.60,0001.28,0000.32,0000.09,0000.09,0000.60,0000.46,0000.64,19.8,26.1,08.6,05.9,0673.9,30.9
2021-08-26T19:55:00Z,00000200,00000000,0002.45,0001.84,0000.87,-000.18,0000.33,0000.21,0000.32,0000.35,0000.15,19.8,26.1,08.6,05.9,0673.9,30.9
2021-08-26T19:56:00Z,00000200,00000000,0001.65,0002.19,0000.99,0000.14,0000.47,0000.04,0000.35,0000.23,0000.63,19.8,26.1,08.6,05.9,0673.9,30.9
2021-08-26T19:57:00Z,00000200,40000000,,,,,,,0000.00,0000.42,-000.17,19.8,26.1,08.9,06.1,0673.9,30.9
2021-08-26T19:58:00Z,00000200,60000000,,,,,,,0000.13,-000.18,-000.14,19.5,26.2,08.6,05.7,0672.9,31.0
2021-08-26T19:59:00Z,00000200,20000000,,,,,,,-000.14,-000.33,-000.02,19.5,26.3,08.6,05.7,0672.9,31.0
